Previsão horária em Cerkovcy

Hoje, 25 Julho, Domingo

Tempo Temperatura Precipitação Vento Pressão Humidade
00:00 +18°C° 0 mm 2 m/s 750 mmHg 82%
01:00 +18°C° 0 mm 2 m/s 750 mmHg 82%
02:00 +18°C° 0 mm 2 m/s 750 mmHg 83%
03:00 +18°C° 0 mm 2 m/s 750 mmHg 84%
04:00 +18°C° 0 mm 2 m/s 750 mmHg 85%
05:00 +18°C° 0 mm 2 m/s 750 mmHg 86%
06:00 +19°C° 0 mm 2 m/s 750 mmHg 83%
07:00 +20°C° 0 mm 2 m/s 750 mmHg 80%
08:00 +21°C° 0 mm 2 m/s 750 mmHg 74%
09:00 +23°C° 0.1 mm 2 m/s 750 mmHg 70%
10:00 +25°C° 0.1 mm 2 m/s 751 mmHg 65%
11:00 +26°C° 0.1 mm 3 m/s 751 mmHg 61%
12:00 +27°C° 0.4 mm 2 m/s 751 mmHg 58%
13:00 +27°C° 0.4 mm 2 m/s 751 mmHg 54%
14:00 +28°C° 0.4 mm 1 m/s 750 mmHg 51%
15:00 +27°C° 0.1 mm 2 m/s 750 mmHg 57%
16:00 +25°C° 0.1 mm 2 m/s 750 mmHg 63%
17:00 +24°C° 0.1 mm 2 m/s 751 mmHg 68%
18:00 +23°C° 0 mm 2 m/s 751 mmHg 69%
19:00 +23°C° 0 mm 2 m/s 751 mmHg 70%
20:00 +21°C° 0 mm 2 m/s 750 mmHg 71%
21:00 +21°C° 0 mm 2 m/s 751 mmHg 73%
22:00 +20°C° 0 mm 3 m/s 751 mmHg 75%
23:00 +19°C° 0 mm 3 m/s 751 mmHg 76%

Amanhã, 26 Julho, Segunda-feira

Tempo Temperatura Precipitação Vento Pressão Humidade
00:00 +19°C° 0 mm 3 m/s 751 mmHg 77%
01:00 +18°C° 0 mm 3 m/s 751 mmHg 78%
02:00 +18°C° 0 mm 3 m/s 751 mmHg 79%
03:00 +18°C° 0 mm 3 m/s 751 mmHg 78%
04:00 +18°C° 0 mm 3 m/s 751 mmHg 78%
05:00 +18°C° 0 mm 3 m/s 751 mmHg 77%
06:00 +19°C° 0 mm 3 m/s 751 mmHg 75%
07:00 +20°C° 0 mm 3 m/s 751 mmHg 72%
08:00 +21°C° 0 mm 4 m/s 751 mmHg 69%
09:00 +23°C° 0 mm 4 m/s 751 mmHg 64%
10:00 +26°C° 0 mm 5 m/s 751 mmHg 58%
11:00 +27°C° 0 mm 5 m/s 751 mmHg 52%
12:00 +28°C° 0 mm 5 m/s 751 mmHg 49%
13:00 +29°C° 0 mm 5 m/s 751 mmHg 46%
14:00 +29°C° 0 mm 5 m/s 750 mmHg 42%
15:00 +29°C° 0 mm 4 m/s 750 mmHg 47%
16:00 +28°C° 0 mm 4 m/s 750 mmHg 51%
17:00 +27°C° 0 mm 3 m/s 750 mmHg 56%
18:00 +26°C° 0 mm 4 m/s 750 mmHg 60%
19:00 +25°C° 0 mm 4 m/s 750 mmHg 65%
20:00 +23°C° 0 mm 4 m/s 749 mmHg 70%
21:00 +22°C° 0 mm 4 m/s 750 mmHg 72%
22:00 +21°C° 0 mm 4 m/s 750 mmHg 74%
23:00 +20°C° 0 mm 4 m/s 750 mmHg 76%

Depois de amanhã, 27 Julho, Terça-feira

Tempo Temperatura Precipitação Vento Pressão Humidade
00:00 +20°C° 0 mm 4 m/s 749 mmHg 74%
01:00 +20°C° 0 mm 4 m/s 749 mmHg 73%
02:00 +20°C° 0 mm 5 m/s 749 mmHg 71%
03:00 +20°C° 0 mm 5 m/s 749 mmHg 71%
04:00 +20°C° 0 mm 5 m/s 748 mmHg 71%
05:00 +20°C° 0 mm 5 m/s 748 mmHg 71%
06:00 +21°C° 0 mm 5 m/s 748 mmHg 72%
07:00 +21°C° 0 mm 5 m/s 748 mmHg 72%
08:00 +21°C° 0 mm 5 m/s 748 mmHg 73%
09:00 +23°C° 0 mm 5 m/s 748 mmHg 69%
10:00 +25°C° 0 mm 5 m/s 748 mmHg 66%
11:00 +26°C° 0 mm 5 m/s 747 mmHg 62%
12:00 +27°C° 0 mm 5 m/s 747 mmHg 61%
13:00 +28°C° 0 mm 5 m/s 747 mmHg 60%
14:00 +29°C° 0 mm 4 m/s 747 mmHg 59%
15:00 +27°C° 0.8 mm 4 m/s 747 mmHg 69%
16:00 +25°C° 0.8 mm 3 m/s 747 mmHg 79%
17:00 +22°C° 0.8 mm 3 m/s 747 mmHg 89%
18:00 +23°C° 0.3 mm 2 m/s 746 mmHg 88%
19:00 +23°C° 0.3 mm 2 m/s 746 mmHg 86%
20:00 +21°C° 0.3 mm 2 m/s 746 mmHg 85%
21:00 +21°C° 0.2 mm 2 m/s 746 mmHg 88%
22:00 +20°C° 0.2 mm 2 m/s 746 mmHg 90%
23:00 +19°C° 0.2 mm 3 m/s 746 mmHg 93%

28 Julho, Quarta-feira

Tempo Temperatura Precipitação Vento Pressão Humidade
00:00 +19°C° 0 mm 2 m/s 746 mmHg 94%
01:00 +19°C° 0 mm 2 m/s 746 mmHg 94%
02:00 +19°C° 0 mm 2 m/s 746 mmHg 95%
03:00 +18°C° 0 mm 2 m/s 746 mmHg 96%
04:00 +18°C° 0 mm 2 m/s 746 mmHg 96%
05:00 +18°C° 0 mm 2 m/s 746 mmHg 96%
06:00 +19°C° 0 mm 3 m/s 747 mmHg 91%
07:00 +21°C° 0 mm 3 m/s 747 mmHg 86%
08:00 +22°C° 0 mm 3 m/s 747 mmHg 81%
09:00 +24°C° 0 mm 3 m/s 747 mmHg 73%
10:00 +26°C° 0 mm 3 m/s 747 mmHg 65%
11:00 +27°C° 0 mm 3 m/s 747 mmHg 57%
12:00 +28°C° 0 mm 3 m/s 747 mmHg 54%
13:00 +29°C° 0 mm 4 m/s 747 mmHg 51%
14:00 +29°C° 0 mm 4 m/s 747 mmHg 48%
15:00 +29°C° 0 mm 4 m/s 747 mmHg 51%
16:00 +28°C° 0 mm 3 m/s 747 mmHg 55%
17:00 +28°C° 0 mm 3 m/s 746 mmHg 58%
18:00 +26°C° 0 mm 2 m/s 746 mmHg 63%
19:00 +25°C° 0 mm 2 m/s 747 mmHg 68%
20:00 +24°C° 0 mm 1 m/s 747 mmHg 73%
21:00 +23°C° 0 mm 1 m/s 747 mmHg 74%
22:00 +22°C° 0 mm 1 m/s 747 mmHg 75%
23:00 +21°C° 0 mm 2 m/s 746 mmHg 76%

29 Julho, Quinta-feira

Tempo Temperatura Precipitação Vento Pressão Humidade
00:00 +21°C° 0 mm 1 m/s 746 mmHg 77%
01:00 +21°C° 0 mm 1 m/s 746 mmHg 78%
02:00 +21°C° 0 mm 1 m/s 746 mmHg 78%
03:00 +21°C° 0 mm 1 m/s 746 mmHg 79%
04:00 +20°C° 0 mm 1 m/s 746 mmHg 79%
05:00 +19°C° 0 mm 2 m/s 746 mmHg 79%
06:00 +20°C° 0 mm 2 m/s 746 mmHg 78%
07:00 +21°C° 0 mm 2 m/s 747 mmHg 76%
08:00 +23°C° 0 mm 2 m/s 747 mmHg 74%
09:00 +23°C° 0 mm 2 m/s 747 mmHg 75%
10:00 +22°C° 0 mm 3 m/s 747 mmHg 75%
11:00 +22°C° 0 mm 3 m/s 747 mmHg 76%
12:00 +25°C° 0 mm 3 m/s 747 mmHg 71%
13:00 +26°C° 0 mm 2 m/s 747 mmHg 65%
14:00 +27°C° 0 mm 2 m/s 747 mmHg 60%
15:00 +27°C° 0.3 mm 2 m/s 747 mmHg 61%
16:00 +26°C° 0.3 mm 2 m/s 747 mmHg 63%
17:00 +26°C° 0.3 mm 2 m/s 747 mmHg 65%
18:00 +25°C° 0 mm 2 m/s 747 mmHg 67%
19:00 +24°C° 0 mm 2 m/s 747 mmHg 70%
20:00 +23°C° 0 mm 1 m/s 747 mmHg 73%
21:00 +22°C° 0 mm 1 m/s 747 mmHg 73%
22:00 +22°C° 0 mm 1 m/s 747 mmHg 74%
23:00 +21°C° 0 mm 1 m/s 747 mmHg 74%

30 Julho, Sexta-feira

Tempo Temperatura Precipitação Vento Pressão Humidade
00:00 +21°C° 0 mm 1 m/s 747 mmHg 75%
01:00 +20°C° 0 mm 1 m/s 747 mmHg 76%
02:00 +20°C° 0 mm 1 m/s 747 mmHg 77%
03:00 +20°C° 0 mm 1 m/s 747 mmHg 78%
04:00 +19°C° 0 mm 1 m/s 747 mmHg 80%
05:00 +18°C° 0 mm 2 m/s 747 mmHg 81%
06:00 +19°C° 0 mm 2 m/s 747 mmHg 79%
07:00 +20°C° 0 mm 2 m/s 747 mmHg 76%
08:00 +22°C° 0 mm 3 m/s 747 mmHg 74%
09:00 +24°C° 0 mm 3 m/s 747 mmHg 66%
10:00 +26°C° 0 mm 3 m/s 747 mmHg 58%
11:00 +27°C° 0 mm 4 m/s 747 mmHg 50%
12:00 +28°C° 0 mm 4 m/s 746 mmHg 49%
13:00 +28°C° 0 mm 4 m/s 746 mmHg 47%
14:00 +29°C° 0 mm 4 m/s 746 mmHg 45%
15:00 +29°C° 0 mm 4 m/s 745 mmHg 47%
16:00 +28°C° 0 mm 3 m/s 745 mmHg 49%
17:00 +28°C° 0 mm 3 m/s 745 mmHg 52%
18:00 +27°C° 0 mm 3 m/s 744 mmHg 58%
19:00 +25°C° 0 mm 3 m/s 744 mmHg 64%
20:00 +24°C° 0 mm 3 m/s 743 mmHg 70%
21:00 +22°C° 0.5 mm 3 m/s 743 mmHg 76%
22:00 +20°C° 0.5 mm 3 m/s 744 mmHg 82%
23:00 +19°C° 0.5 mm 4 m/s 744 mmHg 89%
Mostrar mais

Necessitamos do seu Consentimento

A Meteoprog e os seus Fornecedores de Serviços podem armazenar e aceder a dados pessoais como cookies, identificadores do dispositivo ou outras tecnologias semelhantes existentes no seu dispositivo e processar estes dados para personalizar conteúdos e anúncios, assim como funcionalidades nas redes sociais e análise de tráfego.

  • Armazenar e/ou aceder a informações no seu dispositivo

    Os cookies, identificadores do dispositivo ou outras informações podem ser armazenados ou acedidos no seu dispositivo, para os fins acima indicados.

  • Anúncios e conteúdos personalizados, medição de anúncios e conteúdos, dados sobre o público-alvo e desenvolvimento de produtos

    Os anúncios e os conteúdos podem ser personalizados com base num perfil. Podem ser adicionados dados adicionais para uma maior personalização dos anúncios e dos conteúdos. A eficácia dos anúncios e dos conteúdos pode ser medida. Podem ser obtidas informações sobre o público que visualizou os anúncios e os conteúdos. Estes dados podem ser usados para desenvolver ou melhorar sistemas, softwares ou a experiência do utilizador.

Ao clicar em "Eu concordo”, permitirá o uso de cookies, identificadores do dispositivo e web beacons mencionados ou outras tecnologias semelhantes. As configurações do navegador do seu dispositivo podem ser alteradas.

Para certos fins, podem ser invocados interesses legítimos ao invés de consentimento. Pode ler mais informação sobre este assunto na nossa Política de Privacidade e Cookies.